Weather in Didkovychi

Ukraine / Zhytomyr Region     51˚05′59″N   28˚49′54″E
temp.,
°C
wind,
m/s
gust,
m/s
humid.,
%
clouds,
%
prec.,
mm/h
press.,
hPa
HPBL,
m
17 january, sun
sun1723:00−16˚wsw229320 0.0 101843
02:00−16˚wnw119217 0.0 101820
05:00−16˚nw119249 0.0 101721
08:00−16˚nne119273 0.0 101777
11:00−14˚nnw2479100 0.0 1017451
14:00−13˚nnw2390100 0.3 1017359
17:00−13˚n2494100 0.8 1018356
20:00−14˚n4691100 1.3 1018505
18 january, mon
mon1823:00−15˚n3594100 0.2 1019433
02:00−15˚nnw3493100 0.4 1019367
05:00−16˚nnw3593100 0.1 1019339
08:00−17˚nnw469298 0.2 1020349
11:00−16˚n2489100 0.1 1021427
14:00−15˚nw2486100 0.1 1021483
17:00−16˚nw2393100 0.0 102172
20:00−17˚nw2396100 0.1 102155
19 january, tue
tue1923:00−18˚nw239688 0.0 102242
02:00−19˚wnw339653 0.0 102249
05:00−19˚wnw239733 0.0 102137
08:00−19˚w229625 0.0 102221
11:00−15˚wsw229128 0.0 1022159
14:00−14˚sw238932 0.0 1020204
17:00−16˚ssw229039 0.0 102021
20:00−16˚s238721 0.0 102023
20 january, wed
wed2023:00−16˚sse33870 0.0 102032
02:00−15˚sse34950 0.0 102067
05:00−14˚sse349637 0.0 101980
08:00−12˚sse369662 0.0 1019119
11:00−8˚sse4992100 0.0 1019275
14:00−7˚sse5889100 0.0 1018325
17:00−7˚sse51091100 0.0 1018289
20:00−6˚s6119496 0.1 1018340
21 january, thu
thu2123:00−5˚s5109498 0.3 1017301
02:00−3˚ssw5109699 0.8 1017304
05:00−3˚ssw5109295 0.0 1016258
08:00−3˚ssw4109096 0.0 1016231
11:00ssw5118781 0.0 1017302
14:00+1˚ssw498872 0.0 1016275
17:00−1˚ssw4108822 0.0 1016180
20:00−1˚ssw5108622 0.0 1016186